Terminal Aerodrome Forecast
Issued by NWS Bismarck, ND

Home | Current Version | Previous Version | Graphics & Text | Print | Product List | Glossary On
Versions: 1 2 3 4 5 6 7 8 9 10 11 12 13 14 15 16 17
000
FTUS43 KBIS 181121
TAFISN
TAF
KISN 181121Z 1812/1912 20006KT P6SM SCT250
     FM181800 21010KT P6SM BKN250
     FM190100 21004KT P6SM BKN200
     FM190800 24006KT P6SM OVC110=

USA.gov is the U.S. government's official web portal to all federal, state and local government web resources and services.